Address 0x5d19b015c499d1766828ea555e27441bad845584 27

 
Txn Hash Method
Block
From
To
Value [Txn Fee]
0x3345f756188cf40465000295999ed264b8576db806dcb5154ccf362c5c08789dTransfer247529842023-10-17 10:30:16221 days 10 hrs ago0x5d19b015c499d1766828ea555e27441bad845584OUT 0x750ba8b76187092b0d1e87e28daaf484d1b5273b0 ETH0.00000048 0.01
0xba913a724ea4bcfcaf594902851ad0fe0c55cc070c4c55a221fd9b809594b61d0xba847759247526772023-10-17 10:27:31221 days 10 hrs ago0x5d19b015c499d1766828ea555e27441bad845584OUT 0x86232f68b5bf2a3a03851d98556352512a3b12b90.000018318999999 ETH0.00000528 0.01
0xdf820b7a7600aabe0964007f282a6fcb596364ff57e297befd3d8e3a14f7482e0xba847759247524992023-10-17 10:26:12221 days 10 hrs ago0x5d19b015c499d1766828ea555e27441bad845584OUT 0x86232f68b5bf2a3a03851d98556352512a3b12b90.000021 ETH0.00000478 0.01
0xa7623344a39b2a92036cc614fe8b4b572d0ddbcb22328d8b18307131523195b00x06e75722177630222023-08-12 10:41:33287 days 10 hrs ago0x5d19b015c499d1766828ea555e27441bad845584OUT 0x970bec30e2c5a1e435761332bd3659ad6745d8390.0055 ETH0.00000229 0.01
0x16dcee683097b87327a7ed69900c2a9a3599d222b87ead0e93e193d91b40a322Process Route177629912023-08-12 10:40:58287 days 10 hrs ago0x5d19b015c499d1766828ea555e27441bad845584OUT Sushiswap : Route Processor 30.028 ETH0.00000196 0.01
0x947aa322d2706db2c7c9bd8a3c65c1102eb3aedf0aef8b358975c3dcb0ffc26bSwap Exact Token...177628292023-08-12 10:38:57287 days 10 hrs ago0x5d19b015c499d1766828ea555e27441bad845584OUT 0x28e0f3ebab59a998c4f1019358388b5e2ca92cfa0 ETH0.00000157 0.01
0x9f27352aed0f10c600609705eb94209af075fb00efd2e3bb1fe7be94af0a68efApprove177628062023-08-12 10:38:38287 days 10 hrs ago0x5d19b015c499d1766828ea555e27441bad845584OUT 0x750ba8b76187092b0d1e87e28daaf484d1b5273b0 ETH0.00000063 0.01
0x48a71188d9809051fa22eb1426fc2bfd2f7ca07f5e1655bf44a6dd6c9d4f3c39Validate Transac...112221812023-06-11 11:06:29349 days 9 hrs ago0x5d19b015c499d1766828ea555e27441bad845584OUT 0xf7497304ac73c1a52d10f719dd27580a0db7f9320 ETH0.00000575 0.01
0x2c3f71775d2d90d7dbe180f0b36543d888cf13e604f76dcc54d2309f437f3a04Swap Exact Token...112187912023-06-11 10:32:45349 days 10 hrs ago0x5d19b015c499d1766828ea555e27441bad845584OUT 0x28e0f3ebab59a998c4f1019358388b5e2ca92cfa0 ETH0.00000131 0.01
0xd0da1995f27269458def1c73bae9f52eab6a320b7fad79a83e2d430142d04958Approve112187482023-06-11 10:32:25349 days 10 hrs ago0x5d19b015c499d1766828ea555e27441bad845584OUT Maker: DAI Token0 ETH0.00000056 0.01
0xf2d28bea18e55f15b37719cd50cabf37923d75edf6ff50937746535ecb6b11c20x06e75722112186572023-06-11 10:31:38349 days 10 hrs ago0x5d19b015c499d1766828ea555e27441bad845584OUT 0x970bec30e2c5a1e435761332bd3659ad6745d8390 ETH0.0000021 0.01
0x8150c25e5f2aa3b7eb9a54fe08d8c4a77e4b81e9336ce629898737f76f61895eApprove112186032023-06-11 10:31:06349 days 10 hrs ago0x5d19b015c499d1766828ea555e27441bad845584OUT 0x750ba8b76187092b0d1e87e28daaf484d1b5273b0 ETH0.00000066 0.01
0x394bbfc56ce6a8a215603ef4545b267b2c885e544f3d73c27f436d11fc63bdf2Swap Exact ETH F...112184042023-06-11 10:29:25349 days 10 hrs ago0x5d19b015c499d1766828ea555e27441bad845584OUT 0x28e0f3ebab59a998c4f1019358388b5e2ca92cfa0.03426 ETH0.0000015 0.01
0x0976a70509db23b6ea54a1d8f1d3d8d8266a188147b0be938773fa62a15e56e3Swap Exact Token...112181232023-06-11 10:27:09349 days 10 hrs ago0x5d19b015c499d1766828ea555e27441bad845584OUT Arbswap: Swap Router0 ETH0.00000157 0.01
0xd7bbf774a6831a196275a4f8c22394aa1134e1b208f66ea88962e0ff485e17a2Approve112180642023-06-11 10:26:43349 days 10 hrs ago0x5d19b015c499d1766828ea555e27441bad845584OUT 0x750ba8b76187092b0d1e87e28daaf484d1b5273b0 ETH0.00000065 0.01
0x0f4d2c48cc18954f16fc84fdd0bf9ec9c2af46633fd012f95d4b8fbd0b2f8dbaValidate Transac...92715732023-05-21 17:55:01370 days 2 hrs ago0x5d19b015c499d1766828ea555e27441bad845584OUT 0xf7497304ac73c1a52d10f719dd27580a0db7f9320 ETH0.00000673 0.01
0xa200cdfb187a54f4e33fb13cadd9b75810b1246ee7f750b5afcdb587cbb5134bValidate Transac...92711482023-05-21 17:44:41370 days 3 hrs ago0x5d19b015c499d1766828ea555e27441bad845584OUT 0xf7497304ac73c1a52d10f719dd27580a0db7f9320 ETH0.00000701 0.01
0xecc9f3e642e868404be27c7cee6402f2cc1a0d016639835d71f6c85cc469ebac0x06e7572281594822023-05-08 2:22:00383 days 18 hrs ago0x5d19b015c499d1766828ea555e27441bad845584OUT 0x970bec30e2c5a1e435761332bd3659ad6745d8390 ETH0.00000339 0.01
0xd0474d194240c037dc52da2f5ef1c192846467aaee3914d00b79397acde2f298Approve81594742023-05-08 2:21:37383 days 18 hrs ago0x5d19b015c499d1766828ea555e27441bad845584OUT Maker: DAI Token0 ETH0.00000109 0.01
0xdb5820e0415071307b42715df9a0ad1203d8747a8b273caccb2aedf36b81f8b0Swap81594242023-05-08 2:20:05383 days 18 hrs ago0x5d19b015c499d1766828ea555e27441bad845584OUT Arbswap: Swap Router 20 ETH0.00000304 0.01
0x4acbd014b54a39eaf3190be8ac8696017081c18f96454c3458c273924540022bApprove81594142023-05-08 2:19:51383 days 18 hrs ago0x5d19b015c499d1766828ea555e27441bad845584OUT 0x750ba8b76187092b0d1e87e28daaf484d1b5273b0 ETH0.0000012 0.01
0x029be0f58df036799b0b7b065d7093c5f34029fed196b961b172f9d5b9e4d9f10xba84775959303822023-04-16 19:08:14405 days 1 hr ago0x5d19b015c499d1766828ea555e27441bad845584OUT 0x86232f68b5bf2a3a03851d98556352512a3b12b90.000024 ETH0.00000507 0.01
0x5620e2d6c1c4537fe4d8c5ba373caa9cab753fa93226e6033a3909108480207b0x06e7572259303192023-04-16 19:07:20405 days 1 hr ago0x5d19b015c499d1766828ea555e27441bad845584OUT 0x970bec30e2c5a1e435761332bd3659ad6745d8390.006 ETH0.00000244 0.01
0x15fc9f380a6b1097b024a3a3f74e155e752b06492bd71308f281be1504458ff5Swap Exact ETH F...59302782023-04-16 19:06:39405 days 1 hr ago0x5d19b015c499d1766828ea555e27441bad845584OUT 0x28e0f3ebab59a998c4f1019358388b5e2ca92cfa0.006 ETH0.00000156 0.01
0xbb84ca5fdc70fd26554d6892a56125aa8edfb3b26d1fb56f357583d999ced427Swap Exact ETH F...59302422023-04-16 19:06:07405 days 1 hr ago0x5d19b015c499d1766828ea555e27441bad845584OUT Arbswap: Swap Router0.005 ETH0.00000153 0.01
[ Download CSV Export 
Latest 2 internal transactions
Parent Txn Hash Block From To Value
0x947aa322d2706db2c7c9bd8a3c65c1102eb3aedf0aef8b358975c3dcb0ffc26b177628292023-08-12 10:38:57287 days 10 hrs ago 0x28e0f3ebab59a998c4f1019358388b5e2ca92cfa0x5d19b015c499d1766828ea555e27441bad8455840.032504139846728062 ETH
0x0976a70509db23b6ea54a1d8f1d3d8d8266a188147b0be938773fa62a15e56e3112181232023-06-11 10:27:09349 days 10 hrs ago Arbswap: Swap Router0x5d19b015c499d1766828ea555e27441bad8455840.034153909826814573 ETH
[ Download CSV Export 
Loading

Contract Name:
0 ETH

Compiler Version
0

Optimization Enabled:
0 ETH

Other Settings:
-NA-
Block Transaction Gas Used Reward
Age Block Fee Address BC Fee Address Voting Power Jailed Incoming
Block Uncle Number Difficulty Gas Used Reward
Loading
Make sure to use the "Vote Down" button for any spammy posts, and the "Vote Up" for interesting conversations.